Find Kosmos-2477

NORAD ID: 37869 Int'l Des: 2011-064 Owner: KVR/IACG Country: RU Constellation: GLONASS operational
MEOCIRCULAR

实时位置

正在加载3D地球...

关于 Kosmos-2477

正在加载描述...

即将过境

Passes for default location (London). Set your location on the main map for personalized predictions.

高度历史

Loading altitude history...

两行轨道根数

1 37869U 11064C 26125.24119074 -.00000004 00000-0 00000+0 0 9993
2 37869 65.2606 74.4202 0027042 255.3080 218.2182 2.13101806112850
Epoch: May 5, 2026 • Age: 3 hours

当前状态

高度 19085.3 km
速度 3.96 km/s
星下点 -36.37°S, 86.23°W
发射日期 Nov 4, 2011
运行时间 14.4 years
类型 other

技术详情

分类 Payload
质量 1450.00 kg
干质量 1200.00 kg
总质量 1450.00 kg
长度 4.00 m
直径 1.50 m
跨度 7.80 m
形状 Cyl + Ant + 2 Pan
制造商 RESH
平台类型 Uragan
阶段状态 In Orbit
所有者/国家 KVR/IACG/RU

Most Searched